Location: Utrecht
(52.0907°N, 5.1214°E)
Time: 12:04:10
(UTC+02:00)

SPROUT - Pass Details

Date: 30 June 2022
Orbit: 588 x 598 km, 97.9° (Epoch: 17 August)

Event Time Altitude Azimuth Distance (km) Brightness Sun altitude
Exits shadow 03:45:28 10° 240° (WSW) 1,942 ? -10.1°
Reaches altitude 10° 03:45:36 10° 242° (WSW) 1,917 ? -10.1°
Maximum altitude 03:47:42 14° 272° (W) 1,698 ? -10.0°
Drops below altitude 10° 03:49:49 10° 303° (WNW) 1,926 ? -9.8°
Sets 03:53:02 0° 330° (NNW) 2,835 ? -9.6°
